Time,TemperatureF,DewpointF,PressureIn,WindDirection,WindDirectionDegrees,WindSpeedMPH,WindSpeedGustMPH,Humidity,HourlyPrecipIn,Conditions,Clouds,dailyrainin,SolarRadiationWatts/m^2,SoftwareType,DateUTC
2013-06-12 00:12:00,47.0,32.0,-100.00,WNW,296,10.0,18.0,56,0.00,,,0.00,0.000000,,2013-06-12 07:12:00,
2013-06-12 00:22:00,47.0,32.0,-100.00,WNW,296,10.0,18.0,56,0.00,,,0.00,0.000000,,2013-06-12 07:22:00,
2013-06-12 00:33:00,47.0,32.0,-100.00,WNW,296,10.0,18.0,56,0.00,,,0.00,0.000000,,2013-06-12 07:33:00,
2013-06-12 00:43:00,47.0,32.0,-100.00,WNW,296,10.0,18.0,56,0.00,,,0.00,0.000000,,2013-06-12 07:43:00,
2013-06-12 01:12:00,46.0,30.0,-100.00,WNW,296,14.0,20.0,53,0.00,,,0.00,0.000000,,2013-06-12 08:12:00,
2013-06-12 01:22:00,46.0,30.0,-100.00,WNW,296,14.0,20.0,53,0.00,,,0.00,0.000000,,2013-06-12 08:22:00,
2013-06-12 01:33:00,46.0,30.0,-100.00,WNW,296,14.0,20.0,53,0.00,,,0.00,0.000000,,2013-06-12 08:33:00,
2013-06-12 01:43:00,46.0,30.0,-100.00,WNW,296,14.0,20.0,53,0.00,,,0.00,0.000000,,2013-06-12 08:43:00,
2013-06-12 02:11:00,44.0,31.0,-100.00,NW,310,9.0,18.0,60,0.00,,,0.00,0.000000,,2013-06-12 09:11:00,
2013-06-12 02:22:00,44.0,31.0,-100.00,NW,310,9.0,18.0,60,0.00,,,0.00,0.000000,,2013-06-12 09:22:00,
2013-06-12 02:33:00,44.0,31.0,-100.00,NW,310,9.0,18.0,60,0.00,,,0.00,0.000000,,2013-06-12 09:33:00,
2013-06-12 02:42:00,44.0,31.0,-100.00,NW,310,9.0,18.0,60,0.00,,,0.00,0.000000,,2013-06-12 09:42:00,
2013-06-12 03:11:00,42.0,31.0,-100.00,NW,304,8.0,11.0,64,0.00,,,0.00,0.000000,,2013-06-12 10:11:00,
2013-06-12 03:23:00,42.0,31.0,-100.00,NW,304,8.0,11.0,64,0.00,,,0.00,0.000000,,2013-06-12 10:23:00,
2013-06-12 03:33:00,42.0,31.0,-100.00,NW,304,8.0,11.0,64,0.00,,,0.00,0.000000,,2013-06-12 10:33:00,
2013-06-12 03:43:00,42.0,31.0,-100.00,NW,304,8.0,11.0,64,0.00,,,0.00,0.000000,,2013-06-12 10:43:00,
2013-06-12 04:12:00,41.0,31.0,-100.00,NW,306,8.0,11.0,66,0.00,,,0.00,0.000000,,2013-06-12 11:12:00,
2013-06-12 04:24:00,41.0,31.0,-100.00,NW,306,8.0,11.0,66,0.00,,,0.00,0.000000,,2013-06-12 11:24:00,
2013-06-12 04:33:00,41.0,31.0,-100.00,NW,306,8.0,11.0,66,0.00,,,0.00,0.000000,,2013-06-12 11:33:00,
2013-06-12 04:43:00,41.0,31.0,-100.00,NW,306,8.0,11.0,66,0.00,,,0.00,0.000000,,2013-06-12 11:43:00,
2013-06-12 05:11:00,38.0,29.0,-100.00,NW,304,8.0,12.0,70,0.00,,,0.00,0.000000,,2013-06-12 12:11:00,
2013-06-12 05:23:00,38.0,29.0,-100.00,NW,304,8.0,12.0,70,0.00,,,0.00,0.000000,,2013-06-12 12:23:00,
2013-06-12 05:33:00,38.0,29.0,-100.00,NW,304,8.0,12.0,70,0.00,,,0.00,0.000000,,2013-06-12 12:33:00,
2013-06-12 05:42:00,38.0,29.0,-100.00,NW,304,8.0,12.0,70,0.00,,,0.00,0.000000,,2013-06-12 12:42:00,
2013-06-12 06:22:00,40.0,30.0,-100.00,NW,317,7.0,11.0,67,0.00,,,0.00,0.000000,,2013-06-12 13:22:00,
2013-06-12 06:32:00,40.0,30.0,-100.00,NW,317,7.0,11.0,67,0.00,,,0.00,0.000000,,2013-06-12 13:32:00,
2013-06-12 06:43:00,40.0,30.0,-100.00,NW,317,7.0,11.0,67,0.00,,,0.00,0.000000,,2013-06-12 13:43:00,
2013-06-12 07:11:00,49.0,34.0,-100.00,NW,304,8.0,12.0,55,0.00,,,0.00,63.000000,,2013-06-12 14:11:00,
2013-06-12 07:23:00,49.0,34.0,-100.00,NW,304,8.0,12.0,55,0.00,,,0.00,63.000000,,2013-06-12 14:23:00,
2013-06-12 07:33:00,49.0,34.0,-100.00,NW,304,8.0,12.0,55,0.00,,,0.00,63.000000,,2013-06-12 14:33:00,
2013-06-12 07:43:00,49.0,34.0,-100.00,NW,304,8.0,12.0,55,0.00,,,0.00,63.000000,,2013-06-12 14:43:00,
2013-06-12 08:12:00,54.0,33.0,-100.00,NW,316,10.0,14.0,45,0.00,,,0.00,242.000000,,2013-06-12 15:12:00,
2013-06-12 08:23:00,54.0,33.0,-100.00,NW,316,10.0,14.0,45,0.00,,,0.00,242.000000,,2013-06-12 15:23:00,
2013-06-12 08:32:00,54.0,33.0,-100.00,NW,316,10.0,14.0,45,0.00,,,0.00,242.000000,,2013-06-12 15:32:00,
2013-06-12 08:43:00,54.0,33.0,-100.00,NW,316,10.0,14.0,45,0.00,,,0.00,242.000000,,2013-06-12 15:43:00,
2013-06-12 09:11:00,57.0,32.0,-100.00,NW,306,5.0,14.0,39,0.00,,,0.00,442.000000,,2013-06-12 16:11:00,
2013-06-12 09:21:00,57.0,32.0,-100.00,NW,306,5.0,14.0,39,0.00,,,0.00,442.000000,,2013-06-12 16:21:00,
2013-06-12 09:32:00,57.0,32.0,-100.00,NW,306,5.0,14.0,39,0.00,,,0.00,442.000000,,2013-06-12 16:32:00,
2013-06-12 09:43:00,57.0,32.0,-100.00,NW,306,5.0,14.0,39,0.00,,,0.00,442.000000,,2013-06-12 16:43:00,
2013-06-12 10:11:00,62.0,33.0,-100.00,SE,131,5.0,11.0,34,0.00,,,0.00,645.000000,,2013-06-12 17:11:00,
2013-06-12 10:22:00,62.0,33.0,-100.00,SE,131,5.0,11.0,34,0.00,,,0.00,645.000000,,2013-06-12 17:22:00,
2013-06-12 10:33:00,62.0,33.0,-100.00,SE,131,5.0,11.0,34,0.00,,,0.00,645.000000,,2013-06-12 17:33:00,
2013-06-12 10:42:00,62.0,33.0,-100.00,SE,131,5.0,11.0,34,0.00,,,0.00,645.000000,,2013-06-12 17:42:00,
2013-06-12 11:12:00,59.0,31.0,-100.00,NE,42,2.0,9.0,34,0.00,,,0.00,555.000000,,2013-06-12 18:12:00,
2013-06-12 11:22:00,59.0,31.0,-100.00,NE,42,2.0,9.0,34,0.00,,,0.00,555.000000,,2013-06-12 18:22:00,
2013-06-12 11:32:00,59.0,31.0,-100.00,NE,42,2.0,9.0,34,0.00,,,0.00,555.000000,,2013-06-12 18:32:00,
2013-06-12 11:43:00,59.0,31.0,-100.00,NE,42,2.0,9.0,34,0.00,,,0.00,555.000000,,2013-06-12 18:43:00,
2013-06-12 12:11:00,60.0,30.0,-100.00,SE,125,1.0,13.0,32,0.00,,,0.00,264.000000,,2013-06-12 19:11:00,
2013-06-12 12:22:00,60.0,30.0,-100.00,SE,125,1.0,13.0,32,0.00,,,0.00,264.000000,,2013-06-12 19:22:00,
2013-06-12 12:32:00,60.0,30.0,-100.00,SE,125,1.0,13.0,32,0.00,,,0.00,264.000000,,2013-06-12 19:32:00,
2013-06-12 12:42:00,60.0,30.0,-100.00,SE,125,1.0,13.0,32,0.00,,,0.00,264.000000,,2013-06-12 19:42:00,
2013-06-12 13:11:00,63.0,30.0,-100.00,South,187,2.0,9.0,29,0.00,,,0.00,342.000000,,2013-06-12 20:11:00,
2013-06-12 13:21:00,63.0,30.0,-100.00,South,187,2.0,9.0,29,0.00,,,0.00,342.000000,,2013-06-12 20:21:00,
2013-06-12 13:32:00,63.0,30.0,-100.00,South,187,2.0,9.0,29,0.00,,,0.00,342.000000,,2013-06-12 20:32:00,
2013-06-12 13:42:00,63.0,30.0,-100.00,South,187,2.0,9.0,29,0.00,,,0.00,342.000000,,2013-06-12 20:42:00,
2013-06-12 14:11:00,65.0,30.0,-100.00,South,179,5.0,12.0,27,0.00,,,0.00,335.000000,,2013-06-12 21:11:00,
2013-06-12 14:21:00,65.0,30.0,-100.00,South,179,5.0,12.0,27,0.00,,,0.00,335.000000,,2013-06-12 21:21:00,
2013-06-12 14:33:00,65.0,30.0,-100.00,South,179,5.0,12.0,27,0.00,,,0.00,335.000000,,2013-06-12 21:33:00,
2013-06-12 14:43:00,65.0,30.0,-100.00,South,179,5.0,12.0,27,0.00,,,0.00,335.000000,,2013-06-12 21:43:00,
2013-06-12 15:11:00,66.0,29.0,-100.00,SSW,208,8.0,14.0,25,0.00,,,0.00,379.000000,,2013-06-12 22:11:00,
2013-06-12 15:22:00,66.0,29.0,-100.00,SSW,208,8.0,14.0,25,0.00,,,0.00,379.000000,,2013-06-12 22:22:00,
2013-06-12 15:32:00,66.0,29.0,-100.00,SSW,208,8.0,14.0,25,0.00,,,0.00,379.000000,,2013-06-12 22:32:00,
2013-06-12 15:43:00,66.0,29.0,-100.00,SSW,208,8.0,14.0,25,0.00,,,0.00,379.000000,,2013-06-12 22:43:00,
2013-06-12 16:11:00,67.0,28.0,-100.00,SE,133,5.0,15.0,23,0.00,,,0.00,429.000000,,2013-06-12 23:11:00,
2013-06-12 16:22:00,67.0,28.0,-100.00,SE,133,5.0,15.0,23,0.00,,,0.00,429.000000,,2013-06-12 23:22:00,
2013-06-12 16:32:00,67.0,28.0,-100.00,SE,133,5.0,15.0,23,0.00,,,0.00,429.000000,,2013-06-12 23:32:00,
2013-06-12 16:42:00,67.0,28.0,-100.00,SE,133,5.0,15.0,23,0.00,,,0.00,429.000000,,2013-06-12 23:42:00,
2013-06-12 17:11:00,64.0,32.0,-100.00,SW,233,4.0,17.0,30,0.00,,,0.00,18.000000,,2013-06-13 00:11:00,
2013-06-12 17:22:00,64.0,32.0,-100.00,SW,233,4.0,17.0,30,0.00,,,0.00,18.000000,,2013-06-13 00:22:00,
2013-06-12 17:32:00,64.0,32.0,-100.00,SW,233,4.0,17.0,30,0.00,,,0.00,18.000000,,2013-06-13 00:32:00,
2013-06-12 17:42:00,64.0,32.0,-100.00,SW,233,4.0,17.0,30,0.00,,,0.00,18.000000,,2013-06-13 00:42:00,
2013-06-12 18:12:00,68.0,32.0,-100.00,West,272,8.0,22.0,26,0.00,,,-99.99,559.000000,,2013-06-13 01:12:00,
2013-06-12 18:22:00,68.0,32.0,-100.00,West,272,8.0,22.0,26,0.00,,,-99.99,559.000000,,2013-06-13 01:22:00,
2013-06-12 18:32:00,68.0,32.0,-100.00,West,272,8.0,22.0,26,0.00,,,-99.99,559.000000,,2013-06-13 01:32:00,
2013-06-12 18:42:00,68.0,32.0,-100.00,West,272,8.0,22.0,26,0.00,,,-99.99,559.000000,,2013-06-13 01:42:00,
2013-06-12 19:11:00,69.0,33.0,-100.00,SSW,212,2.0,13.0,26,0.00,,,0.00,150.000000,,2013-06-13 02:11:00,
2013-06-12 19:22:00,69.0,33.0,-100.00,SSW,212,2.0,13.0,26,0.00,,,0.00,150.000000,,2013-06-13 02:22:00,
2013-06-12 19:33:00,69.0,33.0,-100.00,SSW,212,2.0,13.0,26,0.00,,,0.00,150.000000,,2013-06-13 02:33:00,
2013-06-12 19:42:00,69.0,33.0,-100.00,SSW,212,2.0,13.0,26,0.00,,,0.00,150.000000,,2013-06-13 02:42:00,
2013-06-12 20:11:00,63.0,33.0,-100.00,WNW,297,12.0,18.0,32,0.00,,,0.00,40.000000,,2013-06-13 03:11:00,
2013-06-12 20:22:00,63.0,33.0,-100.00,WNW,297,12.0,18.0,32,0.00,,,0.00,40.000000,,2013-06-13 03:22:00,
2013-06-12 20:33:00,63.0,33.0,-100.00,WNW,297,12.0,18.0,32,0.00,,,0.00,40.000000,,2013-06-13 03:33:00,
2013-06-12 20:42:00,63.0,33.0,-100.00,WNW,297,12.0,18.0,32,0.00,,,0.00,40.000000,,2013-06-13 03:42:00,
2013-06-12 21:11:00,57.0,32.0,-100.00,WNW,297,11.0,20.0,39,0.00,,,0.00,0.000000,,2013-06-13 04:11:00,
2013-06-12 21:22:00,57.0,32.0,-100.00,WNW,297,11.0,20.0,39,0.00,,,0.00,0.000000,,2013-06-13 04:22:00,
2013-06-12 21:32:00,57.0,32.0,-100.00,WNW,297,11.0,20.0,39,0.00,,,0.00,0.000000,,2013-06-13 04:32:00,
2013-06-12 21:43:00,57.0,32.0,-100.00,WNW,297,11.0,20.0,39,0.00,,,0.00,0.000000,,2013-06-13 04:43:00,
2013-06-12 22:11:00,48.0,30.0,-100.00,NNW,328,6.0,16.0,49,0.00,,,0.00,0.000000,,2013-06-13 05:11:00,
2013-06-12 22:23:00,48.0,30.0,-100.00,NNW,328,6.0,16.0,49,0.00,,,0.00,0.000000,,2013-06-13 05:23:00,
2013-06-12 22:33:00,48.0,30.0,-100.00,NNW,328,6.0,16.0,49,0.00,,,0.00,0.000000,,2013-06-13 05:33:00,
2013-06-12 22:42:00,48.0,30.0,-100.00,NNW,328,6.0,16.0,49,0.00,,,0.00,0.000000,,2013-06-13 05:42:00,
2013-06-12 23:11:00,48.0,33.0,-100.00,NW,307,9.0,12.0,55,0.00,,,0.00,0.000000,,2013-06-13 06:11:00,
2013-06-12 23:22:00,48.0,33.0,-100.00,NW,307,9.0,12.0,55,0.00,,,0.00,0.000000,,2013-06-13 06:22:00,
2013-06-12 23:33:00,48.0,33.0,-100.00,NW,307,9.0,12.0,55,0.00,,,0.00,0.000000,,2013-06-13 06:33:00,
2013-06-12 23:44:00,48.0,33.0,-100.00,NW,307,9.0,12.0,55,0.00,,,0.00,0.000000,,2013-06-13 06:44:00,